(76560) = 2002 TY85 = 2000 GR98

Discovered at Socorro on 2000-04-07 by LINEAR.

Orbit

Orbit type: Main Belt

Note: WebGL enabled browser required.

epoch2023-09-13.0
epoch JD2460200.5
perihelion date2023-08-05.59290
perihelion JD2460162.09290
argument of perihelion (°)53.76618
ascending node (°)0.10277
inclination (°)11.77256
eccentricity0.0092828
perihelion distance (AU)2.9241708
Tisserand w.r.t. Jupiter3.2
ΔV w.r.t. Earth (km/sec)11.2
semimajor axis (AU)2.9515696
mean anomaly (°)7.46510
mean daily motion (°/day)0.19436780
aphelion distance (AU)2.979
period (years)5.07
P-vector [x]0.58966462
P-vector [y]0.65999387
P-vector [z]0.46551447
Q-vector [x]-0.80764813
Q-vector [y]0.48160085
Q-vector [z]0.34024274
absolute magnitude14.61
phase slope0.15
uncertainty0
referenceMPEC 2024-B20
observations used1256
oppositions18
arc length (days)9154
first opposition used1998
last opposition used2024
residual rms (arc-secs)0.68
perturbers coarse indicatorM-v
perturbers precise indicator003Ek
first observation date used1998-12-24.0
last observation date used2024-01-16.0
computer nameMPCLINUX
JD of orbit computation2456670.907911
perihelion JD uncertainty (days)1.9210E-03
argument of perihelion uncertainty (°)3.7615E-04
ascending node uncertainty (°)2.2337E-05
inclination uncertainty (°)8.3715E-06
eccentricity uncertainty 4.2232E-08
perihelion distance uncertainty (AU)1.3186E-07
Minimum Orbit Intersection Distances (in AU)
for orbit epoch: 2460200.5, reference: E2024-B20
Mercury2.51377
Venus2.20966
Earth1.93134
Mars1.29631
Jupiter2.02407
Saturn6.22513
Uranus15.486
Neptune26.9294

Observations

1283 total observations over interval: 1998 12 24.32251 – 2024 01 16.382704
These data are available for download (format description).

Date (UT) J2000 RA J2000 Dec Magn Location Ref
1998 12 24.32251 07 54 11.34 +37 47 22.5 18.4 R 699 – Lowell Observatory-LONEOS MPS 63021
1998 12 24.34299 07 54 10.19 +37 47 26.6   699 – Lowell Observatory-LONEOS MPS 63021
1998 12 24.35440 07 54 09.62 +37 47 29.5   699 – Lowell Observatory-LONEOS MPS 63021
2000 04 02.34234 12 59 04.98 -11 38 44.9 18.0 R 699 – Lowell Observatory-LONEOS MPS 14387
2000 04 02.36606 12 59 03.64 -11 38 43.5   699 – Lowell Observatory-LONEOS MPS 14387
2000 04 02.38981 12 59 02.34 -11 38 41.2   699 – Lowell Observatory-LONEOS MPS 14387
2000 04 02.41357 12 59 01.00 -11 38 38.9   699 – Lowell Observatory-LONEOS MPS 14387
2000 04 07.27355 12 54 37.34 -11 30 14.0 18.2   704 – Lincoln Laboratory ETS, New Mexico MPS 12830
2000 04 07.28757 12 54 36.61 -11 30 12.6 18.4   704 – Lincoln Laboratory ETS, New Mexico MPS 12830
2000 04 07.30159 12 54 35.83 -11 30 11.7 17.9   704 – Lincoln Laboratory ETS, New Mexico MPS 12830
2000 04 07.31569 12 54 35.05 -11 30 10.2 18.3   704 – Lincoln Laboratory ETS, New Mexico MPS 12830
2000 04 07.32971 12 54 34.28 -11 30 09.0 18.8   704 – Lincoln Laboratory ETS, New Mexico MPS 12830
2000 04 08.28073 12 53 42.84 -11 28 20.5 18.4   704 – Lincoln Laboratory ETS, New Mexico MPS 12830
2000 04 08.29571 12 53 41.97 -11 28 19.0 18.6   704 – Lincoln Laboratory ETS, New Mexico MPS 12830
2000 04 08.31078 12 53 41.10 -11 28 17.8 18.8   704 – Lincoln Laboratory ETS, New Mexico MPS 12830
2000 04 08.32497 12 53 40.34 -11 28 16.4 18.6   704 – Lincoln Laboratory ETS, New Mexico MPS 12830
2000 04 10.28751 12 51 54.65 -11 24 25.2 18.1   704 – Lincoln Laboratory ETS, New Mexico MPS 14387
2000 04 10.30271 12 51 53.91 -11 24 22.5 18.2   704 – Lincoln Laboratory ETS, New Mexico MPS 14387
2000 04 10.31709 12 51 52.99 -11 24 21.4 18.4   704 – Lincoln Laboratory ETS, New Mexico MPS 14387
2000 04 10.33356 12 51 52.08 -11 24 19.1 17.9   704 – Lincoln Laboratory ETS, New Mexico MPS 14387
2000 04 10.34779 12 51 51.31 -11 24 16.8 18.2   704 – Lincoln Laboratory ETS, New Mexico MPS 14388
2000 05 04.21595 12 33 41.98 -10 36 38.7 18.7 R 699 – Lowell Observatory-LONEOS MPS 14388
2000 05 04.22859 12 33 41.56 -10 36 37.9   699 – Lowell Observatory-LONEOS MPS 14388
2000 05 04.24131 12 33 41.10 -10 36 37.0   699 – Lowell Observatory-LONEOS MPS 14388
2000 05 04.25398 12 33 40.66 -10 36 33.4   699 – Lowell Observatory-LONEOS MPS 14388
2000 05 05.20865 12 33 08.98 -10 35 05.5 18.1   704 – Lincoln Laboratory ETS, New Mexico MPS 14388
2000 05 05.22200 12 33 08.50 -10 35 04.5 18.2   704 – Lincoln Laboratory ETS, New Mexico MPS 14388
2000 05 05.23474 12 33 08.07 -10 35 02.8 18.8   704 – Lincoln Laboratory ETS, New Mexico MPS 14388
2000 05 05.24698 12 33 07.70 -10 35 01.8 18.6   704 – Lincoln Laboratory ETS, New Mexico MPS 14388
2000 05 05.25924 12 33 07.22 -10 35 00.6 19.1   704 – Lincoln Laboratory ETS, New Mexico MPS 14388
2002 09 05.31044 01 07 40.17 +09 24 57.6 19.8   704 – Lincoln Laboratory ETS, New Mexico MPS 63996
2002 09 05.32440 01 07 39.77 +09 24 58.1 19.6   704 – Lincoln Laboratory ETS, New Mexico MPS 63996
2002 09 05.33842 01 07 39.34 +09 24 58.7 20.2   704 – Lincoln Laboratory ETS, New Mexico MPS 63996
2002 09 28.45384 00 50 39.63 +09 17 27.5 19.7   608 – Haleakala-AMOS MPS 63996
2002 09 28.46412 00 50 39.09 +09 17 26.6 19.3   608 – Haleakala-AMOS MPS 63996
2002 09 28.47489 00 50 38.49 +09 17 25.7 19.4   608 – Haleakala-AMOS MPS 63996
2002 10 02.92490 00 46 40.84 +09 10 30.5 18.3 R 599 – Campo Imperatore-CINEOS MPS 63996
2002 10 02.93561 00 46 40.25 +09 10 29.6 18.3 R 599 – Campo Imperatore-CINEOS MPS 63996
2002 10 02.94661 00 46 39.61 +09 10 27.3 18.1 R 599 – Campo Imperatore-CINEOS MPS 63996
2002 10 02.95737 00 46 39.09 +09 10 27.0 18.0 R 599 – Campo Imperatore-CINEOS MPS 63996
2002 10 04.25948 00 45 28.66 +09 08 12.5 18.4   704 – Lincoln Laboratory ETS, New Mexico MPS 63996
2002 10 04.27524 00 45 27.78 +09 08 11.3 18.8   704 – Lincoln Laboratory ETS, New Mexico MPS 63996
2002 10 04.30651 00 45 26.05 +09 08 07.7 19.3   704 – Lincoln Laboratory ETS, New Mexico MPS 63996
2002 10 04.32221 00 45 25.14 +09 08 06.4 18.6   704 – Lincoln Laboratory ETS, New Mexico MPS 63996
2002 10 05.16680 00 44 39.65 +09 06 34.8 18.1   644 – Palomar Mountain/NEAT MPS 63996
2002 10 05.23495 00 44 35.87 +09 06 27.4 17.9   644 – Palomar Mountain/NEAT MPS 63996
2002 10 05.29749 00 44 32.47 +09 06 21.1 17.6   644 – Palomar Mountain/NEAT MPS 63996
2002 10 06.17051 00 43 45.26 +09 04 44.2 18.0   644 – Palomar Mountain/NEAT MPS 63996
2002 10 06.24159 00 43 41.32 +09 04 36.3 18.0   644 – Palomar Mountain/NEAT MPS 63996
2002 10 06.30759 00 43 37.63 +09 04 27.3 17.6   644 – Palomar Mountain/NEAT MPS 63996
2002 10 07.16430 00 42 51.44 +09 02 51.6 18.0 R 699 – Lowell Observatory-LONEOS MPS 63996
2002 10 07.18604 00 42 50.26 +09 02 49.5   699 – Lowell Observatory-LONEOS MPS 63996
2002 10 07.20775 00 42 49.09 +09 02 46.3   699 – Lowell Observatory-LONEOS MPS 63996
2002 10 07.22940 00 42 47.86 +09 02 45.3   699 – Lowell Observatory-LONEOS MPS 63996
2002 10 12.25099 00 38 18.55 +08 52 46.8 19.1   704 – Lincoln Laboratory ETS, New Mexico MPS 63996
2002 10 12.26747 00 38 17.66 +08 52 43.9 19.4   704 – Lincoln Laboratory ETS, New Mexico MPS 63996
2002 10 12.28408 00 38 16.76 +08 52 41.9 19.5   704 – Lincoln Laboratory ETS, New Mexico MPS 63996
2002 10 12.30078 00 38 15.83 +08 52 39.4 19.2   704 – Lincoln Laboratory ETS, New Mexico MPS 63996
2002 10 12.31725 00 38 14.92 +08 52 37.7 19.4   704 – Lincoln Laboratory ETS, New Mexico MPS 63996
2002 10 28.45342 00 25 27.83 +08 20 46.1 21.0   608 – Haleakala-AMOS MPS 66087
2002 10 28.46402 00 25 27.42 +08 20 45.3 20.7   608 – Haleakala-AMOS MPS 66087
2002 10 28.47445 00 25 27.00 +08 20 44.0 21.1   608 – Haleakala-AMOS MPS 66087
2002 10 31.13887 00 23 43.86 +08 16 21.6 18.7 R 699 – Lowell Observatory-LONEOS MPS 66087
2002 10 31.15546 00 23 43.19 +08 16 20.2   699 – Lowell Observatory-LONEOS MPS 66087
2002 10 31.17215 00 23 42.51 +08 16 18.2   699 – Lowell Observatory-LONEOS MPS 66087
2002 10 31.18881 00 23 41.82 +08 16 16.9   699 – Lowell Observatory-LONEOS MPS 66087
2002 11 02.35218 00 22 24.05 +08 13 03.6 19.7   608 – Haleakala-AMOS MPS 66087
2002 11 02.36335 00 22 23.76 +08 13 02.7 20.0   608 – Haleakala-AMOS MPS 66087
2002 11 02.37400 00 22 23.35 +08 13 01.8 20.1   608 – Haleakala-AMOS MPS 66087
2002 11 08.16130 00 19 25.26 +08 06 10.1 19.2   704 – Lincoln Laboratory ETS, New Mexico MPS 66087
2002 11 08.17830 00 19 24.77 +08 06 09.3 19.6   704 – Lincoln Laboratory ETS, New Mexico MPS 66087
2002 11 08.19540 00 19 24.36 +08 06 07.7 19.4   704 – Lincoln Laboratory ETS, New Mexico MPS 66087
2002 11 08.21242 00 19 23.81 +08 06 06.2 20.0   704 – Lincoln Laboratory ETS, New Mexico MPS 66087
2002 11 12.16032 00 17 48.73 +08 03 08.7 19.2   704 – Lincoln Laboratory ETS, New Mexico MPS 66087
2002 11 12.17741 00 17 48.38 +08 03 07.7 19.7   704 – Lincoln Laboratory ETS, New Mexico MPS 66087
2002 11 12.19461 00 17 47.91 +08 03 07.8 19.2   704 – Lincoln Laboratory ETS, New Mexico MPS 66087
2002 11 12.21192 00 17 47.58 +08 03 06.2 19.6   704 – Lincoln Laboratory ETS, New Mexico MPS 66087
2002 11 22.07223 00 15 27.79 +08 02 41.0 19.2   644 – Palomar Mountain/NEAT MPS 67683
2002 11 22.09402 00 15 27.63 +08 02 41.6 19.3   644 – Palomar Mountain/NEAT MPS 67683
2002 11 22.11492 00 15 27.45 +08 02 42.1 19.2   644 – Palomar Mountain/NEAT MPS 67683
2003 12 17.31664 07 25 19.52 +39 10 16.0 18.6   644 – Palomar Mountain/NEAT MPS 107191
2003 12 17.32724 07 25 18.89 +39 10 18.1 19.2   704 – Lincoln Laboratory ETS, New Mexico MPS 107191
2003 12 17.34104 07 25 18.18 +39 10 21.4 19.4   704 – Lincoln Laboratory ETS, New Mexico MPS 107191
2003 12 17.35479 07 25 17.40 +39 10 23.6 20.1   704 – Lincoln Laboratory ETS, New Mexico MPS 107191
2003 12 17.38115 07 25 15.95 +39 10 30.4 19.3   704 – Lincoln Laboratory ETS, New Mexico MPS 107191
2003 12 17.39704 07 25 15.15 +39 10 33.5 19.1   644 – Palomar Mountain/NEAT MPS 107191
2003 12 17.44299 07 25 12.65 +39 10 42.7 18.6 R 699 – Lowell Observatory-LONEOS MPS 93631
2003 12 17.45644 07 25 11.94 +39 10 46.4   699 – Lowell Observatory-LONEOS MPS 93631
2003 12 17.45978 07 25 11.73 +39 10 47.0 18.9   644 – Palomar Mountain/NEAT MPS 107191
